sat.trackr.live / text

‹ back to catalog

TIANQI-18

NORAD 64060 · 2025-105C

PAYLOAD ACTIVE UNKNOWN

§ Identity

Operator
Country
PRC
Launch date
2025-05-19
Launch site
YSLA
Launch vehicle
Mass (kg)
RCS (m²)

External: N2YO · Heavens-Above · Gunter

§ Orbital elements

Epoch: 2026-05-25T02:47:44.469024Z

Period
102.92 min
Inclination
44.9830°
Eccentricity
0.0012158
Mean motion
13.99127171 rev/d
Perigee alt
888.0 km
Apogee alt
905.7 km
Semi-major
7,275.0 km
B*
5.0651e-5
RAAN
124.8572°
Arg perigee
282.5892°
Mean anomaly
77.3580°
Rev number
5,196

§ Raw data

TIANQI-181 64060U 25105C   26145.11648691 -.00000055  00000+0  50651-4 0  99942 64060  44.9830 124.8572 0012158 282.5892  77.3580 13.99127171 51960

JSON: /api/v1/satellites/64060 · /tle

For live sub-satellite position, see the globe view (requires WebGL).

§ Visibility from observer

Set your observer location to see the next 7 days of passes ≥ 10°. The values pass through the URL so the page stays shareable.

No JS? Fill the form by hand. The geolocation button needs JavaScript.